Regional Weather Roundup
Issued by NWS

Home | Current Version | Previous Version | Text Only | Print | Product List | Glossary Off
Versions: 1 2 3 4 5 6 7 8 9 10 11 12 13 14 15 16 17 18 19 20 21 22 23 24 25 26 27 28 29 30 31 32 33 34 35 36 37 38 39 40 41 42 43 44 45 46 47 48 49 50

875
ASUS43 KMPX 232001
RWRMN
WEATHER ROUNDUP FOR MINNESOTA
NATIONAL WEATHER SERVICE TWIN CITIES/CHANHASSEN MN
300 PM CDT TUE MAY 23 2017


NOTE: "FAIR" INDICATES FEW OR NO CLOUDS BELOW 12,000 FEET WITH NO
SIGNIFICANT WEATHER AND/OR OBSTRUCTIONS TO VISIBILITY. N/A MEANS
CURRENT SKY AND/OR WEATHER CONDITIONS ARE NOT AVAILABLE.

MNZ060>063-068>070-232100-
   Twin Cities Metro

CITY           SKY/WX    TMP DP  RH WIND       PRES   REMARKS
TWIN CITIES    CLOUDY    59  46  62 E12       29.80S
ST PAUL        CLOUDY    59  47  64 NE9       29.81S
CRYSTAL        CLOUDY    59  41  51 N10       29.79S
BLAINE         CLOUDY    61  45  55 NE10      29.80S
LAKEVILLE      LGT RAIN  52  52 100 E9        29.80S
EDEN PRAIRIE   LGT RAIN  56  48  74 N5        29.80R
SOUTH ST PAUL  CLOUDY    58  46  65 CALM      29.80S
LAKE ELMO      FAIR      57  45  62 NE8       29.81F
$$
MNZ001>005-007-008-013>017-022>024-027-028-232100-
   Northwest Minnesota

CITY           SKY/WX    TMP DP  RH WIND       PRES   REMARKS
BEMIDJI        CLOUDY    48  46  90 NE8       29.94S
HALLOCK        CLOUDY    63  37  39 NE14      29.99F
ROSEAU         MOSUNNY   63  45  51 NE23      29.98F
WARROAD          N/A     59  46  63 NE13      30.00S
CROOKSTON      PTSUNNY   57  43  58 NE12G22   29.98S
FOSSTON        CLOUDY    52  52 100 NE9G17    29.96F
DETROIT LAKES  MOSUNNY   54  45  71 NE14      29.93S
MOORHEAD       CLOUDY    54  46  76 N14       29.96S
PARK RAPIDS    LGT RAIN  53  44  71 N15       29.90S
MAHNOMEN       CLOUDY    50  45  81 NE17      29.94S
$$
MNZ006-009>011-018-025>026-232100-
   North Central Minnesota

CITY           SKY/WX    TMP DP  RH WIND       PRES   REMARKS
BAUDETTE       CLOUDY    56  41  57 NE16G23   29.96F
FLAG ISLAND    MOSUNNY   59  37  44 NE18G24   29.98S
INTL FALLS     CLOUDY    53  43  68 NE8       29.95F
WASKISH        CLOUDY    54  45  71 N12       29.95F
BIG FORK       CLOUDY    52  46  82 NE6       29.93S
LONGVILLE      RAIN      54  48  82 N6        29.90R
GRAND RAPIDS   LGT RAIN  53  48  83 N12       29.90F
CRANE LAKE     CLOUDY    50  45  81 NE6       29.95S
ORR            CLOUDY    50  43  76 N3        29.91R
COOK           CLOUDY    54  45  71 N9        29.92S
WALKER         CLOUDY    50  44  79 N9        29.91S
$$
MNZ012-019>021-037-232100-
   Northeast Minnesota

CITY           SKY/WX    TMP DP  RH WIND       PRES   REMARKS
DULUTH         CLOUDY    56  45  66 E10       29.86F
ELY            CLOUDY    50  45  81 NE8       29.90S
HIBBING        CLOUDY    54  46  74 NE9       29.88S
EVELETH        PTSUNNY   55  44  66 N12G21    29.89S
DULUTH HARBOR  FOG       46  45  93 E16       29.90R VSB 1/4
TWO HARBORS    CLOUDY    55  48  76 E9        29.87S
SILVER BAY     CLOUDY    48  46  93 E9        29.88S FOG
GRAND MARAIS     N/A     46  45  96 E10       29.90
G MARAIS ARPRT CLOUDY    48  41  76 NE6       29.90R
$$
MNZ029>031-032-039>041-046>048-054>057-064-232100-
   West Central Minnesota

CITY           SKY/WX    TMP DP  RH WIND       PRES   REMARKS
FERGUS FALLS   PTSUNNY   55  46  71 NE8       29.89F
WHEATON        PTSUNNY   55  48  76 NW18G24   29.92S
MORRIS         MOSUNNY   61  48  63 NE14G21   29.86F
ALEXANDRIA     CLOUDY    55  42  61 NE10      29.88R
ELBOW LAKE     CLOUDY    56  43  61 NE13      29.89R
WADENA         PTSUNNY   57  45  62 NE8G17    29.88S
GLENWOOD       MOSUNNY   55  46  71 NE10      29.87S
APPLETON       MOSUNNY   57  43  58 NE15G23   29.86S
BENSON         MOSUNNY   59  45  58 NE14G20   29.88R
ORTONVILLE     PTSUNNY   54  48  82 N17       29.88S
MADISON        PTSUNNY   59  50  72 NE14      29.86F
WILLMAR        FAIR      55  48  76 N8        29.86S
$$
MNZ033>034-036-042>043-049>051-058-059-232100-
   Central Minnesota

CITY           SKY/WX    TMP DP  RH WIND       PRES   REMARKS
ST CLOUD       CLOUDY    57  48  72 N9        29.83F
SAUK CENTRE    CLOUDY    56  44  63 N13       29.85F
PAYNESVILLE    CLOUDY    56  45  64 N8        29.84F
AITKIN         CLOUDY    57  43  58 NE7       29.85S
PINE RIVER     CLOUDY    55  46  71 N8        29.91S
BRAINERD       CLOUDY    58  42  55 N12       29.87S
STAPLES        PTSUNNY   57  39  51 NE6       29.87F
LONG PRAIRIE   CLOUDY    54  41  62 NW8       29.87S
LITTLE FALLS   CLOUDY    55  43  62 N3        29.85S
LITCHFIELD     PTSUNNY   55  50  82 NE5       29.84R
BUFFALO        CLOUDY    60  44  54 N10       29.82S
MAPLE LAKE     CLOUDY    60  47  60 NE6       29.83S
HUTCHINSON     MOSUNNY   59  48  67 N6        29.83F
$$
MNZ037-044-045-052-053-232100-
   East Central Minnesota

CITY           SKY/WX    TMP DP  RH WIND       PRES   REMARKS
PRINCETON      MOSUNNY   63  46  55 N8G16     29.82F
MORA           CLOUDY    54  43  66 E10       29.85S
CAMBRIDGE      CLOUDY    61  45  55 NE8       29.81S
RUSH CITY      CLOUDY    58  46  66 N6        29.83S
MOOSE LAKE     CLOUDY    57  43  58 NE7G16    29.84S
HINCKLEY       CLOUDY    59  46  63 NE8       29.84S
CLOQUET        MOSUNNY   55  43  62 NE6       29.86F
MCGREGOR       CLOUDY    57  43  58 NE13      29.86F
$$
MNZ071>073-080-081-089-090-097-098-232100-
   Southwest Minnesota

CITY           SKY/WX    TMP DP  RH WIND       PRES   REMARKS
MONTEVIDEO     PTSUNNY   55  48  76 NE10      29.85S
CANBY          LGT RAIN  55  47  76 N14G20    29.87S
MARSHALL       CLOUDY    54  47  77 N14       29.85S
REDWOOD FALLS  CLOUDY    59  46  62 N9        29.82F
OLIVIA         CLOUDY    55  45  67 N14       29.83S
PIPESTONE      LGT RAIN  52  45  76 NE12G17   29.85S
WINDOM         CLOUDY    54  45  71 N13       29.82S
WORTHINGTON    LGT RAIN  51  46  83 N20G28    29.84R
JACKSON        CLOUDY    54  45  71 VRB14     29.81F
TRACY          CLOUDY    52  48  87 N10       29.85R
SLAYTON        CLOUDY    51  46  80 N17       29.85S
$$
MNZ065>067-074>077-082>085-091>093-232100-
   South Central Minnesota

CITY           SKY/WX    TMP DP  RH WIND       PRES   REMARKS
MANKATO        LGT RAIN  53  48  83 N12       29.81S
NEW ULM        CLOUDY    55  45  67 NE9       29.81S
ST JAMES       LGT RAIN  52  48  87 N12       29.83R
FAIRMONT       CLOUDY    54  47  77 N14G21    29.80S
GLENCOE        CLOUDY    58  49  73 N7        29.81S
FARIBAULT      DRIZZLE   54  48  82 N8        29.80S
OWATONNA       LGT RAIN  54  48  82 NE8       29.79S
WASECA         LGT RAIN  52  46  82 N10       29.80S
ALBERT LEA     LGT RAIN  54  46  76 NE7G16    29.79R
$$
MNZ078>079-086>088-094>096-232100-
   Southeast Minnesota

CITY           SKY/WX    TMP DP  RH WIND       PRES   REMARKS
ROCHESTER      LGT RAIN  50  50 100 N12       29.78F
RED WING       DRIZZLE   55  46  71 NE9       29.79S
STANTON        LGT RAIN  55  50  82 N7        29.78F
DODGE CENTER   LGT RAIN  50  46  87 N8        29.79S
WINONA         CLOUDY    54  48  82 N3        29.76S
AUSTIN         LGT RAIN  52  48  87 N6        29.78S
PRESTON        CLOUDY    50  47  91 N7        29.76F
$$
ABBREVIATIONS USED IN REMARKS
   TC - TEMPERATURES IN CELSIUS
  WCI - WIND CHILL INDEX
   HX - HEAT INDEX
  VSB - VISIBILITY
$$




USA.gov is the U.S. government's official web portal to all federal, state and local government web resources and services.